| time (UTC) | temp F | wind direction | speed MPH | gust MPH | rain 1hr in | rain 24hr in | rain mn in | humidity % | barometer mb |
| 20260509192517 | 51 | 0 | 5.0 | 13.0 | 0.00 | 0.00 | 0.00 | 30 | 1007.1 |
| 20260509191517 | 50 | 45 | 6.0 | 13.0 | 0.00 | 0.00 | 0.00 | 33 | 1007.1 |
| 20260509190538 | 47 | 45 | 5.0 | 11.0 | 0.00 | 0.00 | 0.00 | 35 | 1007.3 |
| 20260509185537 | 47 | 0 | 5.0 | 12.0 | 0.00 | 0.00 | 0.00 | 33 | 1007.2 |
| 20260509184558 | 48 | 0 | 4.0 | 11.0 | 0.00 | 0.00 | 0.00 | 32 | 1007.0 |
| 20260509183517 | 48 | 0 | 8.0 | 24.0 | 0.00 | 0.00 | 0.00 | 32 | 1006.7 |
| 20260509182517 | 49 | 0 | 7.0 | 15.0 | 0.00 | 0.00 | 0.00 | 30 | 1006.7 |
| 20260509181517 | 50 | 0 | 5.0 | 14.0 | 0.00 | 0.00 | 0.00 | 29 | 1006.5 |
| 20260509180517 | 49 | 45 | 9.0 | 22.0 | 0.00 | 0.00 | 0.00 | 30 | 1006.2 |
| 20260509175517 | 47 | 0 | 6.0 | 16.0 | 0.00 | 0.00 | 0.00 | 33 | 1006.2 |
| 20260509174517 | 48 | 0 | 5.0 | 18.0 | 0.00 | 0.00 | 0.00 | 32 | 1006.1 |
| 20260509173517 | 48 | 90 | 4.0 | 12.0 | 0.00 | 0.00 | 0.00 | 32 | 1005.8 |
| 20260509172517 | 48 | 0 | 9.0 | 22.0 | 0.00 | 0.00 | 0.00 | 31 | 1005.6 |
| 20260509171517 | 47 | 0 | 6.0 | 15.0 | 0.00 | 0.00 | 0.00 | 34 | 1005.4 |
| 20260509170517 | 48 | 23 | 5.0 | 11.0 | 0.00 | 0.00 | 0.00 | 34 | 1005.2 |
| 20260509165517 | 48 | 23 | 6.0 | 15.0 | 0.00 | 0.00 | 0.00 | 33 | 1005.1 |
| 20260509164517 | 47 | 0 | 8.0 | 19.0 | 0.00 | 0.00 | 0.00 | 35 | 1004.9 |
| 20260509163537 | 48 | 0 | 7.0 | 18.0 | 0.00 | 0.00 | 0.00 | 35 | 1004.7 |
| 20260509162517 | 49 | 0 | 7.0 | 15.0 | 0.00 | 0.00 | 0.00 | 33 | 1004.5 |
| 20260509161537 | 50 | 338 | 9.0 | 22.0 | 0.00 | 0.00 | 0.00 | 31 | 1004.5 |
| 20260509160517 | 50 | 23 | 6.0 | 17.0 | 0.00 | 0.00 | 0.00 | 31 | 1004.1 |
| 20260509155537 | 51 | 45 | 8.0 | 21.0 | 0.00 | 0.00 | 0.00 | 31 | 1003.8 |
| 20260509154517 | 50 | 45 | 8.0 | 15.0 | 0.00 | 0.00 | 0.00 | 32 | 1003.9 |
| 20260509153517 | 49 | 23 | 6.0 | 20.0 | 0.00 | 0.00 | 0.00 | 34 | 1003.6 |
| 20260509152517 | 49 | 23 | 8.0 | 19.0 | 0.00 | 0.00 | 0.00 | 33 | 1003.6 |
| 20260509151517 | 50 | 0 | 6.0 | 18.0 | 0.00 | 0.00 | 0.00 | 34 | 1003.3 |
| 20260509150517 | 51 | 315 | 8.0 | 20.0 | 0.00 | 0.00 | 0.00 | 32 | 1002.9 |
| 20260509145517 | 50 | 45 | 7.0 | 16.0 | 0.00 | 0.00 | 0.00 | 32 | 1002.7 |
| 20260509144517 | 49 | 23 | 10.0 | 20.0 | 0.00 | 0.00 | 0.00 | 34 | 1002.7 |
| 20260509143537 | 50 | 0 | 7.0 | 22.0 | 0.00 | 0.00 | 0.00 | 34 | 1002.6 |
| 20260509142537 | 49 | 0 | 8.0 | 17.0 | 0.00 | 0.00 | 0.00 | 33 | 1002.3 |
| 20260509141516 | 48 | 338 | 10.0 | 18.0 | 0.00 | 0.00 | 0.00 | 34 | 1002.2 |
| 20260509140516 | 48 | 45 | 9.0 | 24.0 | 0.00 | 0.00 | 0.00 | 34 | 1002.1 |
| 20260509135517 | 47 | 338 | 5.0 | 16.0 | 0.00 | 0.00 | 0.00 | 37 | 1001.9 |
| 20260509134517 | 47 | 0 | 6.0 | 14.0 | 0.00 | 0.00 | 0.00 | 36 | 1001.7 |
| 20260509133517 | 47 | 315 | 9.0 | 17.0 | 0.00 | 0.00 | 0.00 | 36 | 1001.6 |
| 20260509132516 | 47 | 0 | 5.0 | 15.0 | 0.00 | 0.00 | 0.00 | 35 | 1001.6 |
| 20260509131537 | 48 | 315 | 6.0 | 19.0 | 0.00 | 0.00 | 0.00 | 34 | 1001.4 |
| 20260509130516 | 47 | 23 | 4.0 | 12.0 | 0.00 | 0.00 | 0.00 | 36 | 1001.5 |
| 20260509125537 | 46 | 45 | 4.0 | 15.0 | 0.00 | 0.00 | 0.00 | 36 | 1001.3 |
| 20260509124517 | 46 | 248 | 3.0 | 9.0 | 0.00 | 0.00 | 0.00 | 35 | 1001.4 |
| 20260509123516 | 47 | 338 | 7.0 | 14.0 | 0.00 | 0.00 | 0.00 | 34 | 1001.3 |
| 20260509122517 | 46 | 338 | 4.0 | 14.0 | 0.00 | 0.00 | 0.00 | 35 | 1001.3 |
| 20260509121516 | 45 | 23 | 4.0 | 14.0 | 0.00 | 0.00 | 0.00 | 35 | 1001.2 |
| 20260509120516 | 44 | 0 | 4.0 | 9.0 | 0.00 | 0.00 | 0.00 | 36 | 1001.0 |
| 20260509115517 | 44 | 338 | 3.0 | 9.0 | 0.00 | 0.00 | 0.00 | 36 | 1001.0 |
| 20260509114516 | 44 | 315 | 3.0 | 11.0 | 0.00 | 0.00 | 0.00 | 35 | 1000.9 |
| 20260509113536 | 43 | 338 | 3.0 | 10.0 | 0.00 | 0.00 | 0.00 | 36 | 1000.9 |
| 20260509112516 | 43 | 293 | 2.0 | 7.0 | 0.00 | 0.00 | 0.00 | 36 | 1000.7 |
| 20260509111516 | 43 | 315 | 2.0 | 4.0 | 0.00 | 0.00 | 0.00 | 35 | 1000.6 |
| 20260509110516 | 43 | 0 | 2.0 | 9.0 | 0.00 | 0.00 | 0.00 | 36 | 1000.5 |
| 20260509105516 | 43 | 45 | 2.0 | 7.0 | 0.00 | 0.00 | 0.00 | 35 | 1000.3 |
| 20260509104516 | 42 | 338 | 3.0 | 10.0 | 0.00 | 0.00 | 0.00 | 35 | 1000.4 |
| 20260509103516 | 43 | 293 | 3.0 | 8.0 | 0.00 | 0.00 | 0.00 | 34 | 1000.3 |
| 20260509102516 | 43 | 338 | 4.0 | 10.0 | 0.00 | 0.00 | 0.00 | 34 | 1000.2 |
| 20260509101516 | 43 | 315 | 2.0 | 8.0 | 0.00 | 0.00 | 0.00 | 34 | 1000.1 |
| 20260509100536 | 43 | 338 | 3.0 | 10.0 | 0.00 | 0.00 | 0.00 | 34 | 1000.0 |
| 20260509095536 | 43 | 338 | 3.0 | 9.0 | 0.00 | 0.00 | 0.00 | 34 | 999.9 |
| 20260509094516 | 43 | 338 | 2.0 | 8.0 | 0.00 | 0.00 | 0.00 | 33 | 999.8 |
| 20260509093516 | 43 | 0 | 3.0 | 9.0 | 0.00 | 0.00 | 0.00 | 33 | 999.9 |
| 20260509092516 | 44 | 23 | 3.0 | 8.0 | 0.00 | 0.00 | 0.00 | 33 | 999.9 |
| 20260509091516 | 44 | 293 | 3.0 | 10.0 | 0.00 | 0.00 | 0.00 | 32 | 1000.0 |
| 20260509090516 | 44 | 23 | 3.0 | 8.0 | 0.00 | 0.00 | 0.00 | 32 | 999.8 |
| 20260509085516 | 44 | 338 | 3.0 | 9.0 | 0.00 | 0.00 | 0.00 | 32 | 999.8 |
| 20260509084516 | 45 | 0 | 2.0 | 5.0 | 0.00 | 0.00 | 0.00 | 31 | 999.6 |
| 20260509083516 | 45 | 338 | 2.0 | 6.0 | 0.00 | 0.00 | 0.00 | 31 | 999.6 |
| 20260509082516 | 45 | 338 | 2.0 | 6.0 | 0.00 | 0.00 | 0.00 | 31 | 999.5 |
| 20260509081516 | 45 | 315 | 3.0 | 10.0 | 0.00 | 0.00 | 0.00 | 32 | 999.7 |
| 20260509080536 | 43 | 315 | 3.0 | 10.0 | 0.00 | 0.00 | 0.00 | 33 | 999.4 |
| 20260509075516 | 43 | 315 | 3.0 | 5.0 | 0.00 | 0.00 | 0.00 | 34 | 999.4 |
| 20260509074516 | 43 | 315 | 2.0 | 4.0 | 0.00 | 0.00 | 0.00 | 36 | 999.3 |
| 20260509073516 | 44 | 315 | 1.0 | 3.0 | 0.00 | 0.00 | 0.00 | 34 | 999.3 |
| 20260509072536 | 46 | 315 | 1.0 | 4.0 | 0.00 | 0.00 | 0.00 | 32 | 999.2 |
| 20260509071516 | 47 | 315 | 1.0 | 4.0 | 0.00 | 0.00 | 0.00 | 30 | 999.1 |
| 20260509070516 | 48 | 293 | 2.0 | 4.0 | 0.00 | 0.00 | 0.00 | 28 | 999.5 |
| 20260509065516 | 48 | 315 | 1.0 | 4.0 | 0.00 | 0.00 | 0.00 | 28 | 999.5 |
| 20260509064516 | 49 | 338 | 2.0 | 6.0 | 0.00 | 0.00 | 0.00 | 27 | 999.8 |
| 20260509063536 | 49 | 293 | 3.0 | 10.0 | 0.00 | 0.00 | 0.00 | 28 | 999.7 |
| 20260509062516 | 49 | 45 | 2.0 | 9.0 | 0.00 | 0.00 | 0.00 | 29 | 999.3 |
| 20260509061516 | 48 | 338 | 2.0 | 8.0 | 0.00 | 0.00 | 0.00 | 29 | 999.3 |
| 20260509060515 | 48 | 0 | 2.0 | 10.0 | 0.00 | 0.00 | 0.00 | 31 | 999.7 |
| 20260509055516 | 47 | 0 | 3.0 | 11.0 | 0.00 | 0.00 | 0.00 | 32 | 999.5 |
| 20260509054516 | 46 | 23 | 3.0 | 8.0 | 0.00 | 0.00 | 0.00 | 36 | 999.3 |
| 20260509053515 | 43 | 23 | 3.0 | 7.0 | 0.00 | 0.00 | 0.00 | 42 | 999.4 |
| 20260509052516 | 40 | 158 | 1.0 | 3.0 | 0.00 | 0.00 | 0.00 | 49 | 999.4 |
| 20260509051516 | 42 | 158 | 1.0 | 3.0 | 0.00 | 0.00 | 0.00 | 51 | 999.4 |
| 20260509050515 | 40 | 0.0 | 2.0 | 0.00 | 0.00 | 0.00 | 51 | 999.5 | |
| 20260509045516 | 37 | 0.0 | 2.0 | 0.00 | 0.00 | 0.00 | 56 | 999.5 | |
| 20260509044516 | 37 | 0.0 | 0.0 | 0.00 | 0.00 | 0.00 | 59 | 999.5 | |
| 20260509043515 | 37 | 0.0 | 0.0 | 0.00 | 0.00 | 0.00 | 60 | 999.3 | |
| 20260509042516 | 37 | 0.0 | 0.0 | 0.00 | 0.00 | 0.00 | 58 | 999.4 | |
| 20260509041516 | 38 | 0.0 | 1.0 | 0.00 | 0.00 | 0.00 | 57 | 999.5 | |
| 20260509040515 | 40 | 0.0 | 0.0 | 0.00 | 0.00 | 0.00 | 54 | 999.5 | |
| 20260509035515 | 40 | 0.0 | 2.0 | 0.00 | 0.00 | 0.00 | 53 | 999.7 | |
| 20260509034536 | 41 | 90 | 1.0 | 3.0 | 0.00 | 0.00 | 0.00 | 51 | 999.7 |
| 20260509033516 | 43 | 68 | 1.0 | 4.0 | 0.00 | 0.00 | 0.00 | 50 | 999.5 |
| 20260509032515 | 41 | 68 | 2.0 | 4.0 | 0.00 | 0.00 | 0.00 | 53 | 999.7 |
| 20260509031515 | 39 | 68 | 2.0 | 4.0 | 0.00 | 0.00 | 0.00 | 56 | 999.7 |
| 20260509030516 | 39 | 135 | 2.0 | 3.0 | 0.00 | 0.00 | 0.00 | 54 | 999.7 |
| 20260509025535 | 39 | 135 | 2.0 | 4.0 | 0.00 | 0.00 | 0.00 | 55 | 999.8 |
| 20260509024516 | 40 | 135 | 1.0 | 3.0 | 0.00 | 0.00 | 0.00 | 54 | 999.8 |
| 20260509023515 | 40 | 135 | 2.0 | 4.0 | 0.00 | 0.00 | 0.00 | 54 | 999.7 |
| 20260509022515 | 40 | 135 | 1.0 | 3.0 | 0.00 | 0.00 | 0.00 | 54 | 999.7 |
| 20260509021535 | 40 | 135 | 2.0 | 3.0 | 0.00 | 0.00 | 0.00 | 54 | 999.5 |
| 20260509020519 | 41 | 135 | 1.0 | 2.0 | 0.00 | 0.00 | 0.00 | 53 | 999.4 |
| 20260509015517 | 42 | 135 | 1.0 | 2.0 | 0.00 | 0.00 | 0.00 | 52 | 999.4 |
| 20260509014517 | 42 | 0.0 | 0.0 | 0.00 | 0.00 | 0.00 | 52 | 999.5 | |
| 20260509013517 | 43 | 0.0 | 1.0 | 0.00 | 0.00 | 0.00 | 52 | 999.5 | |
| 20260509012517 | 44 | 0.0 | 0.0 | 0.00 | 0.00 | 0.00 | 52 | 999.5 | |
| 20260509011517 | 44 | 0.0 | 0.0 | 0.00 | 0.00 | 0.00 | 52 | 999.5 | |
| 20260509010517 | 45 | 0.0 | 1.0 | 0.00 | 0.00 | 0.00 | 51 | 999.5 | |
| 20260509005517 | 45 | 135 | 1.0 | 3.0 | 0.00 | 0.00 | 0.00 | 51 | 999.5 |
| 20260509004517 | 45 | 0.0 | 2.0 | 0.00 | 0.00 | 0.00 | 50 | 999.5 | |
| 20260509003517 | 45 | 68 | 1.0 | 4.0 | 0.00 | 0.00 | 0.00 | 49 | 999.5 |
| 20260509002537 | 46 | 90 | 1.0 | 3.0 | 0.00 | 0.00 | 0.00 | 46 | 999.7 |
| 20260509001517 | 48 | 68 | 1.0 | 3.0 | 0.00 | 0.00 | 0.00 | 43 | 999.7 |
| 20260509000517 | 48 | 45 | 1.0 | 4.0 | 0.00 | 0.00 | 0.00 | 41 | 999.6 |
| 20260508235517 | 48 | 45 | 2.0 | 4.0 | 0.00 | 0.00 | 0.00 | 41 | 999.7 |
| 20260508234517 | 49 | 0.0 | 3.0 | 0.00 | 0.00 | 0.00 | 40 | 999.8 | |
| 20260508233517 | 50 | 135 | 1.0 | 4.0 | 0.00 | 0.00 | 0.00 | 37 | 999.5 |
| 20260508232517 | 51 | 135 | 2.0 | 4.0 | 0.00 | 0.00 | 0.00 | 34 | 999.5 |
| 20260508231517 | 52 | 0.0 | 0.0 | 0.00 | 0.00 | 0.00 | 33 | 999.6 | |
| 20260508230517 | 51 | 0.0 | 0.0 | 0.00 | 0.00 | 0.00 | 34 | 999.7 | |
| 20260508225517 | 51 | 225 | 1.0 | 4.0 | 0.00 | 0.00 | 0.00 | 36 | 999.8 |
| 20260508224517 | 51 | 0.0 | 2.0 | 0.00 | 0.00 | 0.00 | 35 | 1000.1 | |
| 20260508223517 | 51 | 0.0 | 0.0 | 0.00 | 0.00 | 0.00 | 35 | 1000.1 | |
| 20260508222517 | 52 | 225 | 1.0 | 4.0 | 0.00 | 0.00 | 0.00 | 32 | 1000.2 |
| 20260508221517 | 51 | 0.0 | 2.0 | 0.00 | 0.00 | 0.00 | 33 | 1000.3 | |
| 20260508220537 | 51 | 225 | 1.0 | 2.0 | 0.00 | 0.00 | 0.00 | 33 | 1000.5 |
| 20260508215517 | 51 | 0.0 | 2.0 | 0.00 | 0.00 | 0.00 | 33 | 1000.6 | |
| 20260508214517 | 50 | 225 | 2.0 | 6.0 | 0.00 | 0.00 | 0.00 | 35 | 1000.7 |
| 20260508213517 | 49 | 225 | 3.0 | 8.0 | 0.00 | 0.00 | 0.00 | 37 | 1000.7 |
| 20260508212517 | 47 | 225 | 3.0 | 6.0 | 0.00 | 0.00 | 0.00 | 43 | 1000.6 |
| 20260508211517 | 48 | 225 | 5.0 | 8.0 | 0.00 | 0.00 | 0.00 | 40 | 1000.9 |
| 20260508210517 | 48 | 225 | 3.0 | 6.0 | 0.00 | 0.00 | 0.00 | 39 | 1001.0 |
| 20260508205517 | 50 | 225 | 3.0 | 5.0 | 0.00 | 0.00 | 0.00 | 38 | 1001.1 |
| 20260508204517 | 51 | 225 | 4.0 | 9.0 | 0.00 | 0.00 | 0.00 | 34 | 1001.3 |
| 20260508203517 | 47 | 225 | 2.0 | 9.0 | 0.00 | 0.00 | 0.00 | 41 | 1001.3 |
| 20260508202537 | 45 | 203 | 2.0 | 5.0 | 0.00 | 0.00 | 0.00 | 47 | 1001.2 |
| 20260508201517 | 44 | 225 | 1.0 | 2.0 | 0.00 | 0.00 | 0.00 | 49 | 1001.4 |
| 20260508200516 | 43 | 225 | 1.0 | 3.0 | 0.00 | 0.00 | 0.00 | 52 | 1001.6 |
| 20260508195517 | 42 | 225 | 3.0 | 6.0 | 0.00 | 0.00 | 0.00 | 54 | 1001.8 |
| 20260508194517 | 43 | 225 | 3.0 | 5.0 | 0.00 | 0.00 | 0.00 | 54 | 1001.9 |
| 20260508193517 | 43 | 225 | 4.0 | 6.0 | 0.00 | 0.00 | 0.00 | 52 | 1002.1 |